Back to catalog

NIMBUS 2 DEB

AliveSSO
NORAD 59972·DEBRIS·🇺🇸 United States

Launched May 15, 1966 from Vandenberg Space Force Base

Loading…

Next Passes (next 24 hours)

TLE

FreshSource: Space-Track

Epoch: Sep 14, 2026, 13:54 UTC

1 59972U 66040CB  26257.57968179  .00000975  00000-0  18680-2 0  9998
2 59972 100.4343 109.4960 0050080  44.4315 316.0813 13.39903595271720

Track NIMBUS 2 DEB in real time with AllMySat

Download on the App Store